Simultaneous Nadir Overpasses (SNOs) Predictions

Prediction of SNOs between NOAA-20 and LANDSAT-8 Satellite Orbit:

Table of predicted SNOs for the next 14.0 days since TLE Epoch: 7/4/2020
Index Date (NOAA-20) Time (NOAA-20) Lat,Lon (NOAA-20) SZA (NOAA-20 ) Date (LANDSAT-8) Time (LANDSAT-8) Lat,Lon (LANDSAT-8) SZA (LANDSAT-8 ) Distance(km) Time Diff (sec)
1 07/05/2020 06:32:32 70.12, 78.13 47.38 07/05/2020 06:33:28 70.15, 78.13 47.39 2.35 56
2 07/05/2020 07:23:14 -70.03,-114.41 132.72 07/05/2020 07:22:58 -70.03,-114.40 132.72 0.48 16
3 07/05/2020 08:13:45 69.23, 54.07 46.45 07/05/2020 08:12:37 69.27, 52.20 46.57 73.82 68
4 07/07/2020 22:49:26 70.13,-166.10 47.67 07/07/2020 22:49:59 70.10,-166.06 47.63 3.22 33
5 07/07/2020 23:40:07 -69.98, 1.44 132.49 07/07/2020 23:39:29 -69.99, 1.42 132.47 1.54 38
6 07/10/2020 14:15:44 -70.71, 141.45 131.39 07/10/2020 14:16:54 -70.59, 142.90 131.57 55.02 70
7 07/10/2020 15:06:18 70.07, -50.25 47.95 07/10/2020 15:06:29 70.05, -50.25 47.92 2.65 11
8 07/10/2020 15:56:59 -69.93, 117.29 132.21 07/10/2020 15:55:59 -69.95, 117.23 132.18 3.08 60
9 07/13/2020 06:32:27 -70.13,-101.87 131.62 07/13/2020 06:33:33 -70.11,-101.93 131.66 3.41 66
10 07/13/2020 07:23:11 70.02, 65.60 48.27 07/13/2020 07:23:00 70.00, 65.56 48.25 3.35 11
11 07/13/2020 08:13:46 -69.56,-126.39 132.22 07/13/2020 08:12:35 -69.62,-127.33 132.11 37.38 71
12 07/15/2020 22:49:21 -70.13, 13.90 131.20 07/15/2020 22:50:03 -70.11, 13.95 131.23 3.07 42
13 07/15/2020 23:40:04 69.98,-178.55 48.64 07/15/2020 23:39:30 70.00,-178.56 48.67 2.58 34
